Flag Weather past 2 weeks in Langley, British Columbia, Canada

Now
56 °F

Cool.


Feels Like: 54 °F
Forecast: 53 / 55 °F
Wind: 7 mph from Southeast

Location: P. Meadows Coastal Station

Current Time: Nov 27, 2014 at 11:57:35 AM

Latest Report: Nov 27, 2014 at 11:00 AM


Visibility: N/A

Pressure: 29.73 "Hg

Humidity: 89%

Dew point: 53 °F

Location of LangleyLocation

Historic Weather in Langley — Graph

°F

Langley temperature yesterday

Maximum temperature yesterday: 52 °F (at 11:00 PM)
Minimum temperature yesterday: 40 °F (at 7:00 AM)
Average temperature yesterday: 45 °F

Past Weeks' High & Low Weather Summary

 TemperatureHumidityPressure
High55 °F (Nov 27, 12:00 AM)100% (Nov 14, 1:00 AM)30.57 "Hg (Nov 14, 1:00 AM)
Low21 °F (Nov 14, 4:00 AM)20% (Nov 12, 3:00 PM)29.27 "Hg (Nov 21, 7:00 PM)
Average39 °F85%30.09 "Hg
* Reported Nov 12 10:00 AM — Nov 27 10:00 AM, Langley, Weather by CustomWeather, © 2014

Note: Actual official high and low records may vary slightly from our data, if they occured in-between our weather recording intervals... More about our weather records

Advertising

Langley weather history for previous 24 hours

 ConditionsComfort  
Time TempWeatherWind HumidityBarometerVisibility
10:00 AM
Nov 27
54 °FCool.7 mph90%29.74 "HgN/A
9:00 AM53 °FCool.9 mph91%29.74 "HgN/A
7:00 AM52 °FCool.8 mph94%29.75 "HgN/A
6:00 AM52 °FCool.8 mph91%29.75 "HgN/A
5:00 AM54 °FCool.9 mph85%29.75 "HgN/A
4:00 AM54 °FCool.8 mph87%29.75 "HgN/A
3:00 AM54 °FCool.10 mph88%29.75 "HgN/A
2:00 AM54 °FCool.9 mph90%29.75 "HgN/A
1:00 AM55 °FCool.10 mph88%29.75 "HgN/A
12:00 AM55 °FCool.6 mph91%29.76 "HgN/A
11:00 PM
Nov 26
52 °FCool.3 mph99%29.77 "HgN/A
10:00 PM51 °FCool.5 mph99%29.80 "HgN/A
9:00 PM51 °FCool.No wind99%29.80 "HgN/A
8:00 PM48 °FCool.2 mph99%29.83 "HgN/A
7:00 PM47 °FCool.1 mph98%29.86 "HgN/A
6:00 PM47 °FCool.No wind98%29.89 "HgN/A
5:00 PM47 °FCool.2 mph97%29.92 "HgN/A
4:00 PM47 °FCool.1 mph98%29.96 "HgN/A
3:00 PM47 °FCool.1 mph97%29.97 "HgN/A
2:00 PM46 °FCool.1 mph97%30.00 "HgN/A
1:00 PM46 °FCool.1 mph97%30.02 "HgN/A
12:00 PM45 °FQuite cool.2 mph97%30.04 "HgN/A
11:00 AM44 °FQuite cool.2 mph97%30.06 "HgN/A
Weather by CustomWeather, © 2014

See weather overviewHow to use our weather pages